TimeCDT,TemperatureF,Dew PointF,Humidity,Sea Level PressureIn,VisibilityMPH,Wind Direction,Wind SpeedMPH,Gust SpeedMPH,PrecipitationIn,Events,Conditions,WindDirDegrees,DateUTC
12:45 AM,48.2,39.2,71,29.88,2.5,WSW,5.8,-,N/A,,Haze,240,2012-11-02 05:45:00
12:52 AM,48.9,39.0,69,29.88,2.5,WSW,6.9,-,N/A,,Haze,240,2012-11-02 05:52:00
1:29 AM,48.2,39.2,71,29.88,3.0,WSW,5.8,-,N/A,,Haze,250,2012-11-02 06:29:00
1:52 AM,50.0,39.0,66,29.88,3.0,WSW,4.6,-,N/A,,Haze,250,2012-11-02 06:52:00
2:52 AM,48.0,37.9,68,29.91,7.0,WNW,4.6,-,N/A,,Clear,290,2012-11-02 07:52:00
3:52 AM,45.0,37.0,74,29.92,10.0,NNW,4.6,-,N/A,,Clear,330,2012-11-02 08:52:00
4:52 AM,44.1,37.0,76,29.94,10.0,NNW,4.6,-,N/A,,Clear,330,2012-11-02 09:52:00
5:52 AM,43.0,36.0,76,29.97,10.0,NNW,6.9,-,N/A,,Clear,330,2012-11-02 10:52:00
6:52 AM,43.0,36.0,76,30.00,10.0,NNW,8.1,-,N/A,,Clear,340,2012-11-02 11:52:00
7:52 AM,41.0,35.1,79,30.02,8.0,North,6.9,-,N/A,,Clear,350,2012-11-02 12:52:00
8:52 AM,45.0,35.1,68,30.06,9.0,NNE,8.1,-,N/A,,Clear,20,2012-11-02 13:52:00
9:52 AM,46.9,36.0,66,30.07,10.0,NE,6.9,-,N/A,,Clear,40,2012-11-02 14:52:00
10:52 AM,51.1,36.0,56,30.07,10.0,NE,5.8,-,N/A,,Clear,50,2012-11-02 15:52:00
11:52 AM,53.1,34.0,48,30.08,10.0,East,5.8,-,N/A,,Clear,80,2012-11-02 16:52:00
12:52 PM,55.0,34.0,45,30.07,9.0,NE,6.9,-,N/A,,Clear,40,2012-11-02 17:52:00
1:52 PM,55.9,34.0,44,30.05,10.0,NE,6.9,-,N/A,,Clear,40,2012-11-02 18:52:00
2:52 PM,57.0,34.0,42,30.03,10.0,NE,6.9,-,N/A,,Clear,50,2012-11-02 19:52:00
3:52 PM,57.0,34.0,42,30.03,10.0,ENE,5.8,-,N/A,,Clear,60,2012-11-02 20:52:00
4:52 PM,55.9,34.0,44,30.04,10.0,North,3.5,-,N/A,,Clear,10,2012-11-02 21:52:00
5:52 PM,52.0,35.1,53,30.05,10.0,NE,4.6,-,N/A,,Clear,40,2012-11-02 22:52:00
6:52 PM,48.0,35.1,61,30.05,10.0,NE,4.6,-,N/A,,Clear,50,2012-11-02 23:52:00
7:52 PM,46.9,35.1,63,30.05,10.0,East,5.8,-,N/A,,Clear,80,2012-11-03 00:52:00
8:52 PM,45.0,34.0,65,30.06,10.0,ENE,3.5,-,N/A,,Clear,70,2012-11-03 01:52:00
9:52 PM,45.0,34.0,65,30.06,10.0,East,3.5,-,N/A,,Clear,90,2012-11-03 02:52:00
10:52 PM,44.1,35.1,71,30.06,10.0,East,5.8,-,N/A,,Clear,90,2012-11-03 03:52:00
11:52 PM,43.0,34.0,71,30.06,10.0,East,4.6,-,N/A,,Clear,90,2012-11-03 04:52:00